2003 QM69

Initial reported observation by Lincoln Laboratory ETS, New Mexico on 2003-08-26.
(Discoverer will be defined when the object is numbered. See this note on how discoverers are determined.)

Orbit

Orbit type: Main Belt

Note: WebGL enabled browser required.

epoch2022-01-21.0
epoch JD2459600.5
perihelion date2020-07-01.45913
perihelion JD2459031.95913
argument of perihelion (°)343.94741
ascending node (°)21.54630
inclination (°)5.42497
eccentricity0.2888693
perihelion distance (AU)1.8442897
Tisserand w.r.t. Jupiter3.4
ΔV w.r.t. Earth (km/sec)8.7
semimajor axis (AU)2.5934609
mean anomaly (°)134.16708
mean daily motion (°/day)0.23598490
aphelion distance (AU)3.343
period (years)4.18
P-vector [x]0.99495186
P-vector [y]0.09929236
P-vector [z]0.01455447
Q-vector [x]-0.09415554
Q-vector [y]0.87345411
Q-vector [z]0.47771608
absolute magnitude17.8
phase slope0.15
uncertainty0
referenceMPO 686098
observations used72
oppositions5
arc length (days)6768
first opposition used2003
last opposition used2022
residual rms (arc-secs)0.50
perturbers coarse indicatorM-v
perturbers precise indicator003Ek
first observation date used2003-08-26.0
last observation date used2022-03-07.0
computer nameMPCLINUX
Minimum Orbit Intersection Distances (in AU)
for orbit epoch: 2459600.5, reference: E2022-EC7
Mercury1.48511
Venus1.11856
Earth0.8441
Mars0.44177
Jupiter2.10871
Saturn6.15646
Uranus15.0821
Neptune27.3594

Observations

73 total observations over interval: 2003 08 26.30797 – 2022 03 07.371013
These data are available for download (format description).

Date (UT) J2000 RA J2000 Dec Magn Location Ref
2003 08 26.30797 23 29 56.09 -11 39 37.4 19.1   704 – Lincoln Laboratory ETS, New Mexico MPS 83522
2003 08 26.32077 23 29 55.59 -11 39 38.2 19.8   704 – Lincoln Laboratory ETS, New Mexico MPS 83522
2003 08 26.33320 23 29 55.10 -11 39 40.9 19.5   704 – Lincoln Laboratory ETS, New Mexico MPS 83522
2003 08 26.34662 23 29 54.52 -11 39 40.6 19.2   704 – Lincoln Laboratory ETS, New Mexico MPS 83522
2003 08 27.28377 23 29 19.31 -11 41 02.8 19.1   644 – Palomar Mountain/NEAT MPS 83522
2003 08 27.34759 23 29 16.66 -11 41 08.8 18.9   644 – Palomar Mountain/NEAT MPS 83522
2003 08 27.41554 23 29 13.79 -11 41 14.9 19.0   644 – Palomar Mountain/NEAT MPS 83522
2003 09 01.25178 23 25 51.64 -11 48 02.7 18.7   704 – Lincoln Laboratory ETS, New Mexico MPS 84122
2003 09 01.26356 23 25 51.13 -11 48 03.8 19.6   704 – Lincoln Laboratory ETS, New Mexico MPS 84122
2003 09 01.27540 23 25 50.51 -11 48 03.6 19.5   704 – Lincoln Laboratory ETS, New Mexico MPS 84122
2003 09 01.28720 23 25 49.95 -11 48 06.0 18.9   704 – Lincoln Laboratory ETS, New Mexico MPS 84122
2003 09 01.29911 23 25 49.36 -11 48 06.2 19.3   704 – Lincoln Laboratory ETS, New Mexico MPS 84122
2003 09 17.19152 23 12 50.52 -11 56 25.8 18.9 R 699 – Lowell Observatory-LONEOS MPS 85285
2003 09 17.20982 23 12 49.66 -11 56 24.6   699 – Lowell Observatory-LONEOS MPS 85285
2003 09 17.22816 23 12 48.68 -11 56 25.1   699 – Lowell Observatory-LONEOS MPS 85285
2003 09 17.24174 23 12 47.92 -11 56 23.4 18.5   704 – Lincoln Laboratory ETS, New Mexico MPS 84581
2003 09 17.24644 23 12 47.70 -11 56 24.6   699 – Lowell Observatory-LONEOS MPS 85285
2003 09 17.25398 23 12 47.21 -11 56 23.9 19.0   704 – Lincoln Laboratory ETS, New Mexico MPS 84581
2003 09 17.26703 23 12 46.58 -11 56 23.1 18.5   704 – Lincoln Laboratory ETS, New Mexico MPS 84581
2003 09 17.29135 23 12 45.28 -11 56 22.9 18.8   704 – Lincoln Laboratory ETS, New Mexico MPS 84581
2003 10 24.18126 22 59 05.80 -09 23 23.3 20.0   704 – Lincoln Laboratory ETS, New Mexico MPS 88069
2003 10 24.19347 22 59 05.97 -09 23 18.6 20.2   704 – Lincoln Laboratory ETS, New Mexico MPS 88069
2003 10 24.20627 22 59 06.12 -09 23 11.9 20.1   704 – Lincoln Laboratory ETS, New Mexico MPS 88069
2003 10 24.22042 22 59 06.31 -09 23 06.9 20.1   704 – Lincoln Laboratory ETS, New Mexico MPS 88069
2012 12 23.56138 08 20 34.191 +28 09 16.90 21.3 w F51 – Pan-STARRS 1, Haleakala MPS 1285661
2012 12 23.57584 08 20 33.414 +28 09 20.53 21.3 w F51 – Pan-STARRS 1, Haleakala MPS 1285661
2012 12 23.59029 08 20 32.661 +28 09 24.34 21.4 w F51 – Pan-STARRS 1, Haleakala MPS 1285661
2019 05 25.38456 15 36 09.595 -24 40 26.17 21.5 w F51 – Pan-STARRS 1, Haleakala MPS 1100901
2019 05 25.39620 15 36 08.844 -24 40 24.45 21.4 w F51 – Pan-STARRS 1, Haleakala MPS 1100901
2019 05 25.40783 15 36 08.086 -24 40 23.15 21.3 w F51 – Pan-STARRS 1, Haleakala MPS 1100901
2019 05 30.35273 15 31 00.939 -24 28 52.39 21.5 w F51 – Pan-STARRS 1, Haleakala MPS 1100901
2019 05 30.36471 15 31 00.186 -24 28 50.56 21.5 w F51 – Pan-STARRS 1, Haleakala MPS 1100901
2019 05 30.38863 15 30 58.669 -24 28 46.84 21.4 w F51 – Pan-STARRS 1, Haleakala MPS 1100901
2020 08 17.47904 03 46 25.20 +20 25 11.4 21.1 G G96 – Mt. Lemmon Survey MPS 1228082
2020 08 17.48429 03 46 25.74 +20 25 14.6 20.9 G G96 – Mt. Lemmon Survey MPS 1228082
2020 08 17.48954 03 46 26.27 +20 25 17.3 21.2 G G96 – Mt. Lemmon Survey MPS 1228082
2020 08 17.49478 03 46 26.78 +20 25 20.6 21.8 G G96 – Mt. Lemmon Survey MPS 1228082
2020 10 12.364066 04 47 41.08 +26 32 37.7 20.89 G G96 – Mt. Lemmon Survey MPS 1249288
2020 10 12.369193 04 47 41.11 +26 32 39.9 21.30 G G96 – Mt. Lemmon Survey MPS 1249288
2020 10 12.374326 04 47 41.18 +26 32 41.3 21.22 G G96 – Mt. Lemmon Survey MPS 1249288
2020 10 12.379455 04 47 41.22 +26 32 42.9 21.03 G G96 – Mt. Lemmon Survey MPS 1249288
2020 11 22.300716 04 23 03.81 +28 42 48.6 19.94 G G96 – Mt. Lemmon Survey MPS 1302650
2020 11 22.305798 04 23 03.45 +28 42 48.7 19.82 G G96 – Mt. Lemmon Survey MPS 1302650
2020 11 22.310885 04 23 03.08 +28 42 48.7 19.89 G G96 – Mt. Lemmon Survey MPS 1302650
2020 11 22.315974 04 23 02.72 +28 42 48.7 19.75 G G96 – Mt. Lemmon Survey MPS 1302650
2020 11 22.39892 04 22 56.76 +28 42 50.8   691 – Steward Observatory, Kitt Peak-Spacewatch MPS 1302650
2020 11 22.41496 04 22 55.59 +28 42 50.7   691 – Steward Observatory, Kitt Peak-Spacewatch MPS 1302650
2020 11 22.42847 04 22 54.63 +28 42 50.7   691 – Steward Observatory, Kitt Peak-Spacewatch MPS 1302650
2020 12 04.337848 04 09 28.28 +28 36 39.7 20.29 G G96 – Mt. Lemmon Survey MPS 1302650
2020 12 04.348245 04 09 27.60 +28 36 39.2   G96 – Mt. Lemmon Survey MPS 1302650
2020 12 04.353445 04 09 27.21 +28 36 38.4 19.58 G G96 – Mt. Lemmon Survey MPS 1302650
2020 12 11.44215 04 02 24.384 +28 25 06.08 20.0 w F52 – Pan-STARRS 2, Haleakala MPS 1302650
2020 12 11.45118 04 02 23.853 +28 25 04.81 20.1 w F52 – Pan-STARRS 2, Haleakala MPS 1302650
2020 12 11.46027 04 02 23.331 +28 25 03.81 20.0 w F52 – Pan-STARRS 2, Haleakala MPS 1302650
2020 12 11.46932 04 02 22.824 +28 25 02.71 20.0 w F52 – Pan-STARRS 2, Haleakala MPS 1302650
2020 12 16.204477 03 58 25.07 +28 15 23.8 20.62 G G96 – Mt. Lemmon Survey MPS 1302650
2020 12 16.209685 03 58 24.82 +28 15 22.8 20.79 G G96 – Mt. Lemmon Survey MPS 1302650
2020 12 16.214896 03 58 24.55 +28 15 22.5 20.51 G G96 – Mt. Lemmon Survey MPS 1302650
2020 12 16.220112 03 58 24.29 +28 15 21.9 20.81 G G96 – Mt. Lemmon Survey MPS 1302650
2021 01 05.36410 03 50 17.161 +27 35 02.72 20.6 w F52 – Pan-STARRS 2, Haleakala MPS 1328438
2021 01 05.37504 03 50 17.131 +27 35 01.85 20.5 w F52 – Pan-STARRS 2, Haleakala MPS 1328438
2021 01 05.38603 03 50 17.063 +27 35 00.57 20.7 w F52 – Pan-STARRS 2, Haleakala MPS 1328438
2021 01 14.34300 03 51 26.023 +27 23 44.03 20.9 w F51 – Pan-STARRS 1, Haleakala MPS 1328438
2021 01 14.35545 03 51 26.218 +27 23 43.30 21.1 w F51 – Pan-STARRS 1, Haleakala MPS 1328438
2021 01 14.36715 03 51 26.404 +27 23 42.43 21.1 w F51 – Pan-STARRS 1, Haleakala MPS 1328438
2021 01 14.37884 03 51 26.561 +27 23 41.87 21.0 w F51 – Pan-STARRS 1, Haleakala MPS 1328438
2021 02 12.174121 04 11 39.45 +27 25 04.9 22.09 G V00 – Kitt Peak-Bok MPS 1347260
2021 02 12.178895 04 11 39.74 +27 25 05.4 22.17 G V00 – Kitt Peak-Bok MPS 1347260
2021 02 12.183651 04 11 40.01 +27 25 05.7   V00 – Kitt Peak-Bok MPS 1347260
2022 03 07.350923 11 09 47.29 +10 25 43.4 22.08 G V00 – Kitt Peak-Bok MPS 1558312
2022 03 07.357602 11 09 46.92 +10 25 44.9 22.85 G V00 – Kitt Peak-Bok MPS 1558312
2022 03 07.364281 11 09 46.54 +10 25 46.9 21.92 G V00 – Kitt Peak-Bok MPS 1558312
2022 03 07.371013 11 09 46.14 +10 25 48.9 22.20 G V00 – Kitt Peak-Bok MPS 1558312